KG7DQI-13 Weather Reports


time (UTC)temp
C
wind
direction
speed
KPH
gust
KPH
rain 1hr
cm
rain 24hr
cm
rain mn
cm
humidity
%
barometer
mb
20260506034625 20 232 0.0 0.0 0.00 0.00 0.00 52 912.3
20260506033057 20 62 0.0 0.0 0.00 0.00 0.00 48 912.1
20260506031518 21 0 0.0 0.0 0.00 0.00 0.00 46 911.9
20260506025936 21 0 0.0 0.0 0.00 0.00 0.00 44 911.8
20260506024426 22 223 0.0 0.0 0.00 0.00 0.00 43 911.7
20260506023005 23 78 0.0 0.0 0.00 0.00 0.00 41 911.6
20260506021434 23 70 0.0 4.8 0.00 0.00 0.00 39 911.6
20260506015906 23 144 0.0 6.4 0.00 0.00 0.00 39 911.5
20260506014356 24 178 0.0 4.8 0.00 0.00 0.00 38 911.5
20260506012815 24 65 0.0 4.8 0.00 0.00 0.00 36 911.4
20260506011246 24 39 1.6 8.0 0.00 0.00 0.00 36 911.2
20260506005800 25 21 1.6 9.7 0.00 0.00 0.00 35 911.2
20260506004246 25 76 1.6 4.8 0.00 0.00 0.00 35 911.1
20260506002707 25 43 1.6 16.1 0.00 0.00 0.00 34 911.1
20260506001220 25 296 4.8 16.1 0.00 0.00 0.00 34 911.1
20260505235744 26 72 3.2 12.9 0.00 0.00 0.00 33 911.0
20260505234237 26 54 4.8 14.5 0.00 0.00 0.00 32 911.1
20260505232805 26 19 3.2 17.7 0.00 0.00 0.00 31 911.1
20260505231317 26 62 4.8 17.7 0.00 0.00 0.00 31 911.1
20260505225759 26 66 3.2 16.1 0.00 0.00 0.00 31 911.1
20260505224304 27 42 4.8 19.3 0.00 0.00 0.00 31 911.1
20260505222721 27 20 4.8 17.7 0.00 0.00 0.00 30 911.2
20260505221206 27 84 4.8 14.5 0.00 0.00 0.00 30 911.2
20260505215631 27 85 4.8 16.1 0.00 0.00 0.00 29 911.4
20260505214139 27 22 4.8 16.1 0.00 0.00 0.00 30 911.4
20260505212621 26 209 4.8 14.5 0.00 0.00 0.00 28 911.5
20260505211107 26 35 3.2 12.9 0.00 0.00 0.00 29 911.5
20260505205534 26 42 4.8 20.9 0.00 0.00 0.00 31 911.6
20260505204053 26 321 4.8 20.9 0.00 0.00 0.00 31 911.7
20260505202625 26 62 4.8 14.5 0.00 0.00 0.00 34 911.7
20260505201138 25 68 4.8 16.1 0.00 0.00 0.00 36 911.8
20260505195629 25 50 4.8 16.1 0.00 0.00 0.00 36 911.9
20260505194139 25 68 4.8 14.5 0.00 0.00 0.00 37 911.9
20260505192600 25 76 3.2 12.9 0.00 0.00 0.00 36 911.9
20260505191113 25 72 3.2 12.9 0.00 0.00 0.00 35 912.0
20260505185530 24 55 3.2 11.3 0.00 0.00 0.00 37 912.0
20260505184019 23 36 1.6 8.0 0.00 0.00 0.00 39 912.1
20260505182435 23 62 3.2 8.0 0.00 0.00 0.00 40 912.0
20260505180904 22 31 1.6 9.7 0.00 0.00 0.00 42 912.1
20260505175356 22 100 1.6 9.7 0.00 0.00 0.00 42 912.1
20260505173930 22 91 3.2 9.7 0.00 0.00 0.00 42 912.2
20260505172452 21 159 1.6 6.4 0.00 0.00 0.00 45 912.1
20260505170925 20 355 1.6 9.7 0.00 0.00 0.00 47 912.1
20260505165417 20 23 1.6 9.7 0.00 0.00 0.00 50 912.4
20260505163903 19 57 0.0 9.7 0.00 0.00 0.00 51 912.3
20260505162355 18 338 0.0 8.0 0.00 0.00 0.00 53 912.3
20260505160924 18 334 0.0 3.2 0.00 0.00 0.00 54 912.6
20260505152335 16 67 0.0 1.6 0.00 0.00 0.00 61 912.7
20260505150848 15 22 0.0 4.8 0.00 0.00 0.00 65 912.5
20260505123850 3 221 0.0 0.0 0.00 0.00 0.00 89 911.0
20260505122357 4 221 0.0 0.0 0.00 0.00 0.00 90 911.0
20260505120819 4 221 0.0 0.0 0.00 0.00 0.00 85 910.8
20260505115232 4 221 0.0 0.0 0.00 0.00 0.00 87 910.9
20260505113709 3 221 0.0 0.0 0.00 0.00 0.00 85 911.0
20260505112207 4 221 0.0 0.0 0.00 0.00 0.00 86 910.9
20260505110729 4 221 0.0 0.0 0.00 0.00 0.00 87 910.9
20260505100746 5 221 0.0 0.0 0.00 0.00 0.00 82 910.5
20260505095323 5 221 0.0 0.0 0.00 0.00 0.00 79 910.7
20260505093848 6 221 0.0 0.0 0.00 0.00 0.00 81 910.6
20260505092316 6 221 0.0 0.0 0.00 0.00 0.00 82 910.6
20260505090851 6 221 0.0 0.0 0.00 0.00 0.00 81 910.4
20260505085419 6 221 0.0 0.0 0.00 0.00 0.00 79 910.4
20260505083924 6 221 0.0 0.0 0.00 0.00 0.00 76 910.5
20260505082407 7 221 0.0 0.0 0.00 0.00 0.00 76 910.5
20260505080935 7 221 0.0 0.0 0.00 0.00 0.00 75 910.5
20260505075355 7 221 0.0 0.0 0.00 0.00 0.00 76 910.5
20260505073824 7 221 0.0 0.0 0.00 0.00 0.00 75 910.4
20260505072305 7 221 0.0 0.0 0.00 0.00 0.00 74 910.4
20260505070834 7 221 0.0 0.0 0.00 0.00 0.00 71 910.3
20260505065258 8 234 0.0 0.0 0.00 0.00 0.00 68 910.2
20260505063725 8 226 0.0 0.0 0.00 0.00 0.00 69 910.3
20260505062215 9 221 0.0 0.0 0.00 0.00 0.00 64 910.1
20260505060639 10 221 0.0 0.0 0.00 0.00 0.00 68 910.0
20260505055135 10 221 0.0 0.0 0.00 0.00 0.00 63 910.0
20260505053620 11 221 0.0 0.0 0.00 0.00 0.00 60 910.0
20260505052125 12 223 0.0 0.0 0.00 0.00 0.00 57 909.9
20260505050651 13 222 0.0 0.0 0.00 0.00 0.00 54 909.8
20260505040612 17 142 0.0 0.0 0.00 0.00 0.00 48 909.3
20260505035146 18 142 0.0 0.0 0.00 0.00 0.00 45 909.0